This is the latest recevied weather packets stored in our database for station/object AB8Y-13. If no packets are shown the sender has not sent any weather packets the latest 10 day(s).
| Time | Temp. | Humidity | Pressure | Rain* | Wind** | Luminosity | Snow |
|---|---|---|---|---|---|---|---|
| 1777337291 | 17.78° C | 52% | 1008.1 hPa | 0 mm | - | 0 W/m² | - |
| 1777336989 | 17.78° C | 52% | 1008 hPa | 0 mm | - | 1 W/m² | - |
| 1777336687 | 17.78° C | 53% | 1008.1 hPa | 0 mm | - | 1 W/m² | - |
| 1777336385 | 18.33° C | 53% | 1008.2 hPa | 0 mm | - | 2 W/m² | - |
| 1777336082 | 18.33° C | 52% | 1008 hPa | 0 mm | - | 3 W/m² | - |
| 1777335779 | 18.33° C | 53% | 1008.2 hPa | 0 mm | - | 5 W/m² | - |
| 1777335475 | 18.33° C | 53% | 1008 hPa | 0 mm | - | 7 W/m² | - |
| 1777335172 | 17.78° C | 54% | 1008.2 hPa | 0 mm | - | 10 W/m² | - |
| 1777334870 | 18.33° C | 53% | 1008.2 hPa | 0 mm | - | 13 W/m² | - |
| 1777334568 | 18.33° C | 54% | 1008.5 hPa | 0 mm | - | 16 W/m² | - |
| 1777334265 | 18.33° C | 54% | 1008.6 hPa | 0 mm | - | 19 W/m² | - |
| 1777333964 | 18.33° C | 54% | 1008.7 hPa | 0 mm | - | 24 W/m² | - |
| 1777333661 | 17.78° C | 53% | 1008.7 hPa | 0 mm | - | 32 W/m² | - |
| 1777333358 | 17.78° C | 53% | 1008.8 hPa | 0 mm | - | 39 W/m² | - |
| 1777333056 | 17.78° C | 53% | 1009.1 hPa | 0 mm | - | 43 W/m² | - |
| 1777332754 | 17.78° C | 53% | 1009.2 hPa | 0 mm | - | 47 W/m² | - |
| 1777332450 | 17.78° C | 53% | 1009.3 hPa | 0 mm | - | 52 W/m² | - |
| 1777332147 | 17.78° C | 53% | 1009.1 hPa | 0 mm | - | 57 W/m² | - |
| 1777331844 | 17.78° C | 53% | 1009.1 hPa | 0 mm | - | 62 W/m² | - |
| 1777331541 | 17.78° C | 54% | 1009.2 hPa | 0 mm | - | 68 W/m² | - |
| 1777331239 | 17.78° C | 53% | 1008.9 hPa | 0 mm | - | 77 W/m² | - |
| 1777330936 | 17.78° C | 53% | 1009.1 hPa | 0 mm | - | 79 W/m² | - |
| 1777330632 | 17.78° C | 54% | 1008.9 hPa | 0 mm | - | 83 W/m² | - |
| 1777330330 | 17.78° C | 54% | 1008.9 hPa | 0 mm | - | 88 W/m² | - |
| 1777330028 | 17.78° C | 53% | 1008.9 hPa | 0 mm | - | 91 W/m² | - |
* Rain latest hour (hover to see other rain measurements)
** Current wind speed in m/s (hover to see current wind gust speed)